Sheridan, WY

9:57 AM MDT on May 25, 2017 (GMT -0600)
Sheridan County

Weather History for KSHR - January, 2013

Change the Weather History Date:

Monday, January 7, 2013

  Actual Average Record
Temperature  
Mean Temperature 26 °F 23 °F  
Max Temperature 36 °F 36 °F 67 °F (2003)
Min Temperature 15 °F 11 °F -31 °F (1913)
Degree Days  
Heating Degree Days 39 42  
Month to date heating degree days 299 294  
Since 1 July heating degree days 3254 3477  
Cooling Degree Days 0 0  
Month to date cooling degree days 0 0  
Year to date cooling degree days 0 0  
Moisture  
Dew Point 16 °F    
Average Humidity 72    
Maximum Humidity 88    
Minimum Humidity 56    
Precipitation  
Precipitation 0.00 in 0.02 in 0.25 in (1962)
Month to date precipitation T 0.12  
Year to date precipitation T 0.12  
Sea Level Pressure  
Sea Level Pressure 29.93 in    
Wind  
Wind Speed 4 mph (WSW)    
Max Wind Speed 10 mph    
Max Gust Speed 17 mph    
Visibility 10 miles    
Events      
T = Trace of Precipitation, MM = Missing Value Source: NWS Daily Summary

Daily Weather History Graph

Daily Weather History Graph

Search for Another Location

Airport or City:

Trip Planner

Search our weather history database for the weather conditions in past years. The results will help you decide how hot, cold, wet, or windy it might be!

Date:

Astronomy

Jan. 07, 2013 Rise Set
Actual Time 7:44 AM MST 4:44 PM MST
Civil Twilight 7:11 AM MST 5:17 PM MST
Nautical Twilight 6:35 AM MST 5:54 PM MST
Astronomical Twilight 5:59 AM MST 6:29 PM MST
Moon 3:09 AM MST (1/7) 12:59 PM MST (1/7)
Length of Visible Light 10h 05m
Length of Day
8h 59m
Waning Crescent, 22% of the Moon is Illuminated
Jan 7
Waning Crescent
Jan 11
New
Jan 18
First Quarter
Jan 26
Full
Feb 3
Last Quarter

Hourly Weather History & Observations

Time (MST) Temp. Windchill Dew Point Humidity Pressure Visibility Wind Dir Wind Speed Gust Speed Precip Events Conditions
12:53 AM 19.9 °F 14.9 °F 12.9 °F 74% 30.06 in 10.0 mi NW 3.5 mph - N/A   Clear
1:53 AM 18.0 °F 11.1 °F 10.9 °F 74% 30.06 in 10.0 mi South 4.6 mph - N/A   Clear
2:53 AM 19.0 °F 13.9 °F 10.9 °F 71% 30.07 in 10.0 mi SSE 3.5 mph - N/A   Clear
3:53 AM 19.9 °F 12.1 °F 12.9 °F 74% 30.06 in 10.0 mi SW 5.8 mph - N/A   Clear
4:53 AM 17.6 °F 9.3 °F 12.2 °F 79% 29.91 in 10.0 mi SSW 5.8 mph - N/A   Clear
5:53 AM 21.0 °F - 14.0 °F 74% 30.04 in 10.0 mi Calm Calm - N/A   Clear
6:53 AM 18.0 °F 12.7 °F 12.0 °F 78% 30.04 in 10.0 mi West 3.5 mph - N/A   Clear
7:53 AM 21.9 °F 11.7 °F 14.0 °F 72% 30.01 in 10.0 mi South 9.2 mph - N/A   Clear
8:53 AM 19.9 °F 11.1 °F 14.0 °F 78% 30.03 in 10.0 mi North 6.9 mph - N/A   Clear
9:53 AM 24.1 °F 18.2 °F 16.0 °F 71% 30.02 in 10.0 mi North 4.6 mph - N/A   Clear
10:53 AM 28.0 °F 20.8 °F 17.1 °F 63% 30.00 in 10.0 mi NNW 6.9 mph - N/A   Clear
11:53 AM 32.0 °F 27.5 °F 19.0 °F 59% 29.96 in 10.0 mi North 4.6 mph - N/A   Clear
12:53 PM 34.0 °F - 19.0 °F 54% 29.94 in 10.0 mi Calm Calm - N/A   Clear
1:53 PM 34.0 °F - 19.9 °F 56% 29.91 in 10.0 mi Calm Calm - N/A   Clear
2:53 PM 33.1 °F 27.7 °F 21.0 °F 61% 29.89 in 10.0 mi South 5.8 mph - N/A   Clear
3:53 PM 30.2 °F 25.4 °F 19.4 °F 64% 29.75 in 10.0 mi South 4.6 mph - N/A   Clear
4:53 PM 23.0 °F - 17.1 °F 78% 29.87 in 10.0 mi Calm Calm - N/A   Clear
5:53 PM 25.0 °F 20.7 °F 18.0 °F 75% 29.84 in 10.0 mi NNW 3.5 mph - N/A   Clear
6:53 PM 23.0 °F - 17.1 °F 78% 29.86 in 10.0 mi Calm Calm - N/A   Clear
7:53 PM 23.0 °F - 18.0 °F 81% 29.82 in 10.0 mi Calm Calm - N/A   Overcast
8:53 PM 25.0 °F 17.1 °F 19.9 °F 81% 29.83 in 10.0 mi NNW 6.9 mph - N/A   Overcast
9:53 PM 23.0 °F 18.4 °F 19.0 °F 85% 29.80 in 10.0 mi South 3.5 mph - N/A   Overcast
10:53 PM 24.1 °F 16.0 °F 18.0 °F 77% 29.78 in 10.0 mi South 6.9 mph - N/A   Mostly Cloudy
11:53 PM 26.1 °F - 19.9 °F 78% 29.76 in 10.0 mi Calm Calm - N/A   Overcast